Location: Comberjon
(47.6471°N, 6.2003°E)
Time: 06:56:52
(UTC+00:00)

Daily predictions for brighter satellites

Satellite Brightness Start Highest point End
(mag) Time Altitude Azimuth Time Altitude Azimuth Time Altitude Azimuth
USA 281 4.2 16:13:24 10° E 16:18:28 24° NE 16:23:32 10° N
Cosmos 2184 Rocket 4.1 16:12:09 10° N 16:18:32 67° ENE 16:24:51 10° SSE
Cosmos 1814 Rocket 4.1 16:17:23 10° SSW 16:22:42 73° ESE 16:28:00 10° NNE
Cosmos 1980 4.4 16:18:55 10° S 16:23:59 35° ESE 16:29:05 10° NE
Cosmos 2221 2.5 16:23:42 10° S 16:27:59 67° E 16:32:19 10° NNE
H-2A R/B 3.1 16:27:04 10° S 16:30:52 73° W 16:34:44 10° NNW
Cosmos 1570 Rocket 4.2 16:26:50 10° SSW 16:32:09 83° WNW 16:37:29 10° NNE
Abrixas rocket 2.7 16:30:15 10° W 16:32:56 46° SSW 16:35:36 10° SE
Cosmos 1500 Rocket 3.5 16:28:38 10° N 16:33:01 66° E 16:37:24 10° SSE
Meteor 2-2 Rocket 4.4 16:29:27 10° S 16:35:23 71° E 16:41:15 10° NNE
YAOGAN 6 2.5 16:32:03 10° SSE 16:35:42 72° ENE 16:39:20 10° N
CZ-4C R/B 3.0 16:35:04 10° NNE 16:38:42 83° ESE 16:42:19 10° SSW
NOSS 2-1 (C) 4.4 16:34:00 10° NW 16:39:02 84° SW 16:46:10 10° SE
Cosmos 405 Rocket 2.7 16:37:20 10° N 16:41:14 73° ENE 16:45:11 10° SSE
ADEOS Rocket 3.7 16:36:02 10° NNE 16:43:42 86° WNW 16:51:30 10° SSW
Cosmos 405 3.3 16:42:46 10° SSW 16:46:14 68° WNW 16:49:44 10° N
YAOGAN 1 4.2 16:44:13 10° E 16:46:16 14° ENE 16:48:27 10° NNE
Cosmos 1943 Rocket 3.4 16:42:19 10° N 16:46:24 20° NE 16:50:05 11° E
Cosmos 389 Rocket 3.7 16:44:13 10° SE 16:46:56 22° E 16:49:22 12° NE
Cosmos 44 4.4 16:45:03 10° NNW 16:49:37 29° NE 16:54:10 11° E
H-2A R/B 3.0 16:46:38 10° S 16:50:58 66° WSW 16:55:09 10° NNW
BREEZE-M DEB (TANK) 1.7 16:49:22 10° WSW 16:51:37 64° SSE 16:53:03 18° E
Cosmos 2322 Rocket 4.3 16:48:03 10° W 16:51:59 19° NW 16:55:56 10° N
USA 215 3.7 16:47:51 11° ENE 16:53:51 48° SE 17:00:07 10° SSW
SL-16 R/B 3.4 16:49:48 10° SSE 16:53:54 21° E 16:56:52 14° ENE
Cosmos 1743 Rocket 3.9 16:50:52 10° NNW 16:55:20 73° W 16:59:46 10° S
COSMO-SKYMED 1 3.7 16:52:07 10° NE 16:55:36 23° E 16:59:04 10° SSE
CZ-2C R/B 4.1 16:52:29 10° ESE 16:56:20 22° ENE 17:00:04 10° NNE
Cosmos 2298 Rocket 4.3 16:51:50 10° NNW 16:57:09 75° WSW 17:02:26 10° SSE
Okean-O 3.9 16:54:20 10° ESE 16:57:36 20° ENE 17:00:52 10° NNE
Cosmos 2150 Rocket 4.1 16:53:23 10° NNW 16:58:35 78° WSW 17:03:42 10° SSE
Cosmos 1818 3.7 16:54:32 10° NW 17:00:03 84° SW 17:05:30 10° SSE
AQUARIUS 4.1 16:57:08 10° SSE 17:01:37 86° E 17:06:09 10° NNW
Sich 1 3.1 17:00:09 10° N 17:04:30 55° ENE 17:08:47 10° SSE
Cosmos 1606 3.1 17:00:50 10° SSE 17:04:31 42° E 17:08:13 10° NNE
BREEZE-M TANK 4.4 16:59:47 10° W 17:05:47 35° SW 17:08:56 10° SE
Okean O Rocket 1.7 17:04:17 10° S 17:08:38 79° WSW 17:13:02 10° NNW
Cosmos 2366 rocket 4.4 17:03:21 10° N 17:09:06 38° ENE 17:14:46 10° SE
Cosmos 2333 Rocket 3.3 17:03:59 10° SW 17:09:22 42° NW 17:14:45 10° NNE
Helios 1A Rocket 3.9 17:07:31 13° ESE 17:10:10 23° ENE 17:13:23 10° NNE
ISS -3.7 17:08:34 10° SW 17:11:55 66° SSE 17:13:33 27° ENE
Nadezhda 1 Rocket 4.1 17:05:47 10° S 17:12:07 83° W 17:18:34 10° N
Cosmos 1125 Rocket 3.6 17:08:09 10° NNW 17:13:23 82° WSW 17:18:36 10° SSE
Cosmos 1356 3.4 17:10:52 10° N 17:14:16 54° ENE 17:17:36 10° SSE
COSMOS 2428 3.6 17:09:16 10° SW 17:14:48 48° NW 17:20:22 10° NNE
Cosmos 1805 Rocket 3.6 17:10:57 10° N 17:15:28 87° WSW 17:19:54 10° S
Feng Yun 1-1 Rocket 4.3 17:10:47 10° SSE 17:16:31 64° ENE 17:22:08 10° N
SAR-Lupe-4 4.4 17:15:58 26° ENE 17:16:57 30° E 17:20:08 10° SSE
CZ-4B R/B 1.1 17:17:16 19° NNE 17:19:15 60° E 17:22:18 10° S
Cosmos 2278 Rocket 3.0 17:15:01 10° NW 17:20:33 54° WSW 17:26:03 10° S
Cosmos 1666 Rocket 3.6 17:17:20 10° N 17:21:39 53° ENE 17:25:58 10° SSE
Cosmos 1151 Rocket 3.7 17:17:58 10° SSE 17:21:48 32° E 17:23:24 24° NE
IRS-1C Rocket 4.1 17:20:46 10° SSE 17:25:56 59° ENE 17:31:08 10° N
Cosmos 962 Rocket 4.5 17:21:03 10° N 17:27:24 87° E 17:33:38 10° S
USA 267 3.2 17:21:44 13° ESE 17:27:34 72° NNE 17:34:04 10° NW
Cosmos 1328 Rocket 4.1 17:23:51 10° SSE 17:27:43 33° E 17:28:37 30° ENE
Lacrosse 5 rocket 2.8 17:26:02 10° S 17:28:08 17° SE 17:28:08 17° SE
ERS-2 2.0 17:29:45 16° NNE 17:32:35 78° ESE 17:36:15 10° SSW
Cosmos 2360 Rocket 4.5 17:29:28 10° WNW 17:32:59 17° NW 17:36:32 10° N
Cosmos 2341 Rocket 4.0 17:27:26 10° N 17:33:44 87° E 17:40:04 10° S
SAR-Lupe-1 4.3 17:33:31 40° ENE 17:34:09 45° E 17:37:37 10° S
SL-24 R/B 4.1 17:32:45 30° NE 17:34:16 43° E 17:37:54 10° S
Meteor 1-25 Rocket 4.2 17:28:55 10° N 17:34:29 62° ENE 17:40:04 10° SSE
NOSS 0 Rocket 4.3 17:28:29 10° SW 17:34:41 66° WNW 17:40:49 10° NNE
CZ-2D R/B 3.2 17:31:51 10° SSE 17:35:34 55° ENE 17:39:21 10° N
CZ-4 R/B 1.6 17:38:23 40° E 17:38:52 42° ENE 17:42:40 10° N
Cosmos 2219 Rocket 3.9 17:35:40 10° WSW 17:40:33 29° NW 17:45:27 10° NNE
H-2A R/B 3.7 17:37:03 10° N 17:40:48 33° WNW 17:44:34 10° SW
TELKOM 3 3.9 17:39:26 10° WSW 17:41:32 45° SSW 17:41:32 45° SSW
BREEZE-M DEB (TANK) 2.7 17:41:29 10° SW 17:43:13 37° SSW 17:43:13 37° SSW
SKYMED 2 3.4 17:40:45 18° NNE 17:43:56 69° ESE 17:48:16 10° S
USA 81 3.9 17:40:05 10° N 17:45:24 76° E 17:50:40 10° S
SL-24 DEB 4.4 17:42:35 10° NNE 17:47:15 51° E 17:51:51 10° SSE
CREW DRAGON DEMO-1 DEB 2.8 17:45:00 10° WNW 17:47:43 71° WNW 17:47:43 71° WNW
Cosmos 2285 Rocket 3.9 17:42:25 10° NNW 17:48:51 70° ENE 17:55:11 10° SSE
Cosmos 2237 Rocket 2.6 17:44:04 10° SW 17:49:37 61° WNW 17:54:26 14° NNE
Cosmos 1939 Rocket 3.0 17:47:26 10° S 17:51:16 68° W 17:55:10 10° NNW
Cosmos 1633 Rocket 2.9 17:47:59 10° N 17:52:24 90° NE 17:56:46 10° S
H-2A R/B 2.3 17:52:26 32° ESE 17:54:22 46° ENE 17:59:20 10° N
SL-8 Rocket 4.0 17:51:40 10° N 17:57:55 82° W 18:04:10 10° S
Cosmos 864 Rocket 4.4 17:51:35 10° N 17:57:57 80° E 18:04:13 10° SSE
Cosmos 773 Rocket 4.1 17:53:39 10° S 17:58:41 49° ESE 17:59:15 47° E
CSL-04 Rocket 3.8 18:01:44 47° E 18:02:11 48° ENE 18:07:17 10° N
USA 281 3.1 17:55:39 10° SSE 18:02:13 89° ENE 18:08:50 10° NNW
Cosmos 2369 Rocket 2.6 17:56:57 10° NNW 18:02:10 40° NE 18:02:10 40° NE
Cosmos 783 Rocket 4.4 17:59:55 10° SSW 18:05:12 77° ESE 18:07:10 40° NNE
Cosmos 2181 Rocket 4.0 17:58:49 10° S 18:05:16 85° W 18:11:42 10° N
MOS 1 Rocket 3.6 18:03:47 42° NE 18:05:20 56° E 18:10:40 10° S
Cosmos 1821 Rocket 4.1 18:05:38 10° N 18:11:29 48° ENE 18:11:29 48° ENE
Cosmos 1241 Rocket 4.5 18:07:35 10° NW 18:14:14 82° NE 18:17:23 34° SE
YAOGAN 1 2.6 18:21:23 71° SSW 18:21:46 79° WSW 18:26:08 10° NNW
SL-08 R/B 4.3 18:20:27 10° N 18:26:40 85° E 18:32:47 10° S
Cosmos 1470 Rocket 3.8 18:23:28 10° NNW 18:27:22 63° WNW 18:27:22 63° WNW
Cosmos 2297 4.2 18:22:14 10° NW 18:27:48 58° WSW 18:33:22 10° S
Cosmos 1943 Rocket 2.0 18:25:20 10° NNW 18:30:54 88° WSW 18:31:41 67° SSE
Meteor 1-14 Rocket 4.3 18:25:09 10° NNW 18:31:07 86° WSW 18:37:06 10° S
Cosmos 44 3.8 18:26:02 10° NW 18:31:17 66° WSW 18:32:40 47° S
COSMO-SKYMED 1 3.8 18:29:20 20° N 18:31:54 39° WNW 18:35:57 10° SW
Okean-O 3.4 18:29:27 10° S 18:33:44 50° W 18:38:05 10° NNW
CZ-2C R/B 3.6 18:30:50 10° S 18:35:54 56° W 18:40:46 10° NNW
ARGOS 3.7 18:38:31 48° N 18:38:31 48° N 18:42:22 10° NNW
USA 215 3.4 18:35:13 48° NE 18:37:04 68° NNW 18:43:32 10° WSW
Cosmos 1867 3.9 18:31:43 10° SW 18:37:05 60° NW 18:37:57 53° N
SL-16 R/B 2.4 18:31:49 10° SW 18:37:28 68° WNW 18:38:48 51° N
Helios 1A Rocket 4.4 18:43:48 27° SW 18:45:10 35° W 18:48:53 10° NNW
ISS -0.8 18:45:36 10° W 18:46:31 17° WNW 18:46:31 17° WNW
Lacrosse 5 rocket 4.2 19:03:37 10° WSW 19:03:47 11° WSW 19:03:47 11° WSW
USA 267 4.1 19:09:07 37° S 19:10:50 43° SW 19:17:01 10° WNW
CZ-4 R/B 4.0 19:14:25 18° W 19:14:25 18° W 19:16:53 10° NW
H-2A R/B 3.9 19:33:03 26° WSW 19:33:57 28° W 19:38:25 10° NW
Cosmos 2369 Rocket 4.0 19:41:07 10° NW 19:43:59 27° WNW 19:43:59 27° WNW
